EW2802 Weather Reports


Display with metric or nautical units.
time (UTC)temp
F
wind
direction
speed
MPH
gust
MPH
rain 1hr
in
rain 24hr
in
rain mn
in
humidity
%
barometer
mb
20190118073002 35 288 2.0 4.0 0.00 0.00 0.00 51 1009.1
20190118072503 36 287 1.0 4.0 0.00 0.00 0.00 51 1009.0
20190118070006 36 288 1.0 3.0 0.00 0.00 0.00 48 1010.0
20190118064503 34 270 1.0 4.0 0.00 0.00 0.00 51 1010.1
20190118064003 35 242 2.0 6.0 0.00 0.00 0.00 53 1010.4
20190118063502 36 207 2.0 7.0 0.00 0.00 0.00 51 1010.3
20190118063003 36 206 3.0 7.0 0.00 0.00 0.00 50 1010.3
20190118062003 36 223 3.0 10.0 0.00 0.00 0.00 51 1010.6
20190118061503 36 248 3.0 7.0 0.00 0.00 0.00 52 1010.7
20190118061003 35 257 3.0 7.0 0.00 0.00 0.00 51 1010.6
20190118060503 36 249 2.0 6.0 0.00 0.00 0.00 51 1010.9
20190118055002 37 242 1.0 7.0 0.00 0.00 0.00 47 1010.9
20190118053004 37 257 2.0 7.0 0.00 0.00 0.00 44 1011.0
20190118052003 36 205 2.0 5.0 0.00 0.00 0.00 46 1010.2
20190118051504 37 195 2.0 5.0 0.00 0.00 0.00 47 1010.2
20190118051003 37 194 1.0 3.0 0.00 0.00 0.00 45 1010.5
20190118050503 38 242 2.0 6.0 0.00 0.00 0.00 45 1010.8
20190118044503 36 288 2.0 5.0 0.00 0.00 0.00 47 1011.0
20190118043003 36 231 2.0 4.0 0.00 0.00 0.00 48 1011.1
20190118042502 37 246 2.0 6.0 0.00 0.00 0.00 45 1011.6
20190118041003 37 239 3.0 5.0 0.00 0.00 0.00 43 1011.7
20190118040504 37 237 4.0 10.0 0.00 0.00 0.00 44 1011.9
20190118035503 36 228 5.0 9.0 0.00 0.00 0.00 46 1012.1
20190118035002 36 226 4.0 9.0 0.00 0.00 0.00 47 1012.0
20190118034003 36 237 6.0 12.0 0.00 0.00 0.00 48 1012.4
20190118033003 35 213 5.0 9.0 0.00 0.00 0.00 49 1012.3
20190118032502 36 217 3.0 8.0 0.00 0.00 0.00 48 1012.8
20190118032003 38 221 1.0 7.0 0.00 0.00 0.00 45 1012.6
20190118031003 36 250 3.0 5.0 0.00 0.00 0.00 45 1013.0
20190118025504 36 229 2.0 5.0 0.00 0.00 0.00 51 1013.0
20190118025003 37 236 1.0 3.0 0.00 0.00 0.00 49 1013.0
20190118023503 36 247 3.0 7.0 0.00 0.00 0.00 50 1013.4
20190118022503 39 148 1.0 3.0 0.00 0.00 0.00 46 1013.2
20190118021503 40 148 1.0 4.0 0.00 0.00 0.00 42 1013.3
20190118021003 41 165 2.0 5.0 0.00 0.00 0.00 40 1013.2
20190118020003 39 213 1.0 4.0 0.00 0.00 0.00 42 1013.3
20190118015002 40 213 1.0 4.0 0.00 0.00 0.00 38 1013.1
20190118013003 41 249 2.0 4.0 0.00 0.00 0.00 40 1013.4
20190118004003 44 220 3.0 9.0 0.00 0.00 0.00 37 1013.3
20190118002503 46 295 1.0 3.0 0.00 0.00 0.00 39 1013.7
20190118001002 47 266 2.0 5.0 0.00 0.00 0.00 37 1013.9
20190118000503 47 229 1.0 4.0 0.00 0.00 0.00 39 1014.1
20190117235503 48 174 1.0 4.0 0.00 0.00 0.00 36 1014.1
20190117235003 49 198 2.0 6.0 0.00 0.00 0.00 42 1014.2
20190117234002 50 209 2.0 7.0 0.00 0.00 0.00 40 1014.1
20190117233503 50 221 2.0 3.0 0.00 0.00 0.00 40 1014.0
20190117232505 51 222 2.0 3.0 0.00 0.00 0.00 38 1014.4
20190117232003 52 193 2.0 5.0 0.00 0.00 0.00 39 1014.4
20190117231003 51 38 1.0 3.0 0.00 0.00 0.00 40 1014.6
20190117230003 50 39 0.0 2.0 0.00 0.00 0.00 44 1014.5
20190117225503 50 39 0.0 2.0 0.00 0.00 0.00 42 1014.4
20190117225003 49 39 1.0 2.0 0.00 0.00 0.00 44 1014.4
20190117224503 49 39 1.0 2.0 0.00 0.00 0.00 42 1014.4
20190117224002 49 39 1.0 3.0 0.00 0.00 0.00 43 1014.3
20190117223003 50 40 1.0 4.0 0.00 0.00 0.00 42 1014.4
20190117222502 51 44 1.0 4.0 0.00 0.00 0.00 41 1014.6
20190117222003 51 48 1.0 2.0 0.00 0.00 0.00 38 1014.6
20190117220003 51 49 1.0 4.0 0.00 0.00 0.00 40 1014.9
20190117215003 52 62 3.0 7.0 0.00 0.00 0.00 37 1014.9
20190117214503 53 53 2.0 8.0 0.00 0.00 0.00 37 1015.1
20190117214002 53 43 1.0 8.0 0.00 0.00 0.00 37 1014.9
20190117213503 53 347 1.0 2.0 0.00 0.00 0.00 38 1015.2
20190117212503 52 342 3.0 6.0 0.00 0.00 0.00 40 1014.9
20190117212002 51 341 4.0 8.0 0.00 0.00 0.00 38 1015.0
20190117211504 51 341 5.0 8.0 0.00 0.00 0.00 37 1015.1
20190117210503 51 345 4.0 9.0 0.00 0.00 0.00 39 1015.2
20190117210003 52 3 3.0 8.0 0.00 0.00 0.00 38 1015.3
20190117204002 54 33 2.0 6.0 0.00 0.00 0.00 37 1015.8
20190117203503 54 24 2.0 6.0 0.00 0.00 0.00 34 1015.7
20190117203005 54 14 2.0 5.0 0.00 0.00 0.00 36 1015.8
20190117201503 53 2 2.0 4.0 0.00 0.00 0.00 37 1016.3
20190117194504 52 346 4.0 9.0 0.00 0.00 0.00 38 1017.3
20190117194003 52 356 4.0 8.0 0.00 0.00 0.00 38 1017.6
20190117193503 51 357 4.0 8.0 0.00 0.00 0.00 40 1017.6
20190117192003 50 353 5.0 10.0 0.00 0.00 0.00 40 1017.9
20190117190502 49 356 5.0 11.0 0.00 0.00 0.00 42 1018.3
20190117190004 49 356 5.0 11.0 0.00 0.00 0.00 44 1018.4
20190117185504 48 357 5.0 10.0 0.00 0.00 0.00 43 1018.6
20190117184503 48 18 4.0 7.0 0.00 0.00 0.00 43 1018.9
20190117184003 48 30 3.0 5.0 0.00 0.00 0.00 44 1019.0
20190117183503 48 32 3.0 5.0 0.00 0.00 0.00 45 1019.2
20190117183004 48 35 3.0 5.0 0.00 0.00 0.00 46 1019.4
20190117182503 49 47 4.0 10.0 0.00 0.00 0.00 47 1019.5
20190117182003 50 60 4.0 10.0 0.00 0.00 0.00 44 1019.6
20190117181503 50 74 5.0 10.0 0.00 0.00 0.00 44 1019.9
20190117180503 50 87 4.0 8.0 0.00 0.00 0.00 38 1019.9
20190117175503 50 106 3.0 6.0 0.00 0.00 0.00 36 1019.8
20190117175002 51 114 3.0 6.0 0.00 0.00 0.00 34 1019.9
20190117174503 52 124 2.0 6.0 0.00 0.00 0.00 35 1020.2
20190117173504 52 245 3.0 6.0 0.00 0.00 0.00 34 1020.1
20190117173003 51 238 3.0 6.0 0.00 0.00 0.00 34 1020.3
20190117172504 50 243 3.0 6.0 0.00 0.00 0.00 34 1020.2
20190117172003 50 243 4.0 8.0 0.00 0.00 0.00 36 1020.4
20190117171503 49 246 4.0 8.0 0.00 0.00 0.00 36 1020.3
20190117170503 48 231 3.0 7.0 0.00 0.00 0.00 36 1020.6
20190117170004 47 187 1.0 5.0 0.00 0.00 0.00 38 1020.1
20190117165003 46 158 2.0 5.0 0.00 0.00 0.00 44 1020.2
20190117164506 45 168 2.0 5.0 0.00 0.00 0.00 45 1020.3
20190117164002 44 206 2.0 4.0 0.00 0.00 0.00 45 1020.3
20190117163504 44 225 3.0 6.0 0.00 0.00 0.00 45 1020.3
20190117163004 43 226 3.0 8.0 0.00 0.00 0.00 46 1020.2
20190117162503 41 237 4.0 9.0 0.00 0.00 0.00 49 1020.2
20190117161503 39 247 4.0 10.0 0.00 0.00 0.00 51 1020.1
20190117155502 38 241 6.0 12.0 0.00 0.00 0.00 53 1020.0
20190117155003 38 240 7.0 12.0 0.00 0.00 0.00 53 1020.0
20190117154003 37 231 4.0 11.0 0.00 0.00 0.00 53 1020.1
20190117153502 37 211 3.0 6.0 0.00 0.00 0.00 55 1020.1
20190117153004 36 206 4.0 10.0 0.00 0.00 0.00 54 1020.2
20190117152503 36 217 5.0 10.0 0.00 0.00 0.00 54 1020.0
20190117151504 36 218 5.0 8.0 0.00 0.00 0.00 54 1020.2
20190117151003 36 221 5.0 9.0 0.00 0.00 0.00 54 1020.1
20190117150503 36 227 5.0 9.0 0.00 0.00 0.00 54 1020.1
20190117150003 36 237 6.0 12.0 0.00 0.00 0.00 55 1020.1
20190117145503 36 233 6.0 12.0 0.00 0.00 0.00 54 1020.2
20190117145004 36 229 5.0 10.0 0.00 0.00 0.00 55 1020.1
20190117144503 36 237 6.0 10.0 0.00 0.00 0.00 55 1020.2
20190117144002 35 237 5.0 10.0 0.00 0.00 0.00 56 1020.0
20190117143504 35 222 5.0 8.0 0.00 0.00 0.00 56 1019.9
20190117141503 33 226 6.0 10.0 0.00 0.00 0.00 60 1020.1
20190117141003 32 224 6.0 12.0 0.00 0.00 0.00 62 1020.1
20190117140004 33 234 3.0 7.0 0.00 0.00 0.00 60 1020.0
20190117134503 34 243 2.0 6.0 0.00 0.00 0.00 59 1020.2
20190117133503 33 309 3.0 7.0 0.00 0.00 0.00 60 1020.1
20190117133003 34 251 5.0 12.0 0.00 0.00 0.00 60 1019.9
20190117132503 34 245 6.0 15.0 0.00 0.00 0.00 60 1019.8
20190117131503 32 229 3.0 8.0 0.00 0.00 0.00 64 1019.8
20190117131003 32 231 4.0 8.0 0.00 0.00 0.00 66 1019.7
20190117130504 31 229 4.0 11.0 0.00 0.00 0.00 67 1019.7
20190117125003 30 226 1.0 3.0 0.00 0.00 0.00 69 1019.6
20190117123503 31 171 2.0 7.0 0.00 0.00 0.00 66 1019.5
20190117122003 32 231 4.0 8.0 0.00 0.00 0.00 66 1019.5
20190117121503 32 220 4.0 7.0 0.00 0.00 0.00 66 1019.5
20190117121002 32 247 4.0 7.0 0.00 0.00 0.00 65 1019.4
20190117115503 31 248 4.0 8.0 0.00 0.00 0.00 68 1019.7
20190117115003 31 244 4.0 6.0 0.00 0.00 0.00 69 1019.7
20190117114003 31 223 3.0 6.0 0.00 0.00 0.00 67 1019.9
20190117113503 31 239 1.0 4.0 0.00 0.00 0.00 67 1019.9
20190117113005 31 239 2.0 4.0 0.00 0.00 0.00 67 1019.9
20190117112503 32 219 3.0 5.0 0.00 0.00 0.00 66 1019.8
20190117112002 32 178 2.0 5.0 0.00 0.00 0.00 64 1020.0
20190117111503 33 123 1.0 3.0 0.00 0.00 0.00 63 1020.0
20190117111003 34 183 1.0 3.0 0.00 0.00 0.00 62 1019.9
20190117110003 35 188 2.0 5.0 0.00 0.00 0.00 58 1020.0
20190117105503 36 67 2.0 6.0 0.00 0.00 0.00 58 1019.9
20190117105003 36 32 2.0 6.0 0.00 0.00 0.00 57 1020.0
20190117104503 37 313 2.0 7.0 0.00 0.00 0.00 56 1020.0
20190117103003 38 282 3.0 7.0 0.00 0.00 0.00 53 1019.9
20190117102003 37 335 3.0 6.0 0.00 0.00 0.00 55 1019.9
20190117101504 37 342 3.0 6.0 0.00 0.00 0.00 56 1019.9
20190117101003 38 343 4.0 8.0 0.00 0.00 0.00 55 1019.7
20190117100503 38 341 5.0 8.0 0.00 0.00 0.00 53 1019.8
20190117095503 41 321 7.0 15.0 0.00 0.00 0.00 47 1019.6
20190117095003 41 315 7.0 13.0 0.00 0.00 0.00 46 1019.5
20190117093003 42 306 10.0 18.0 0.00 0.00 0.00 44 1019.9
20190117092503 42 304 11.0 18.0 0.00 0.00 0.00 43 1019.7
20190117092003 43 303 11.0 18.0 0.00 0.00 0.00 43 1019.8
20190117091002 42 311 10.0 16.0 0.00 0.00 0.00 44 1019.5
20190117090502 40 315 9.0 16.0 0.00 0.00 0.00 48 1019.5
20190117090003 39 318 8.0 12.0 0.00 0.00 0.00 52 1019.1
20190117085003 40 313 9.0 14.0 0.00 0.00 0.00 51 1019.2
20190117084003 41 307 11.0 18.0 0.00 0.00 0.00 47 1019.0
20190117083004 42 298 13.0 22.0 0.00 0.00 0.00 46 1019.5
20190117082503 41 293 12.0 22.0 0.00 0.00 0.00 47 1018.9
20190117082003 41 292 12.0 20.0 0.00 0.00 0.00 47 1018.9
20190117081503 41 295 13.0 23.0 0.00 0.00 0.00 47 1018.8
20190117081003 41 298 12.0 23.0 0.00 0.00 0.00 47 1019.3
20190117074003 41 286 10.0 21.0 0.00 0.00 0.00 50 1019.1